This demonstration page uses our WeatherBlox Daily Observations layout. Learn more.

36.17497, -115.13722

Hourly Observations for June 26, 2016

Temp ( °F °C ) Dew Point ( °F °C ) Humidity (%) Winds ( mph kmh ) Pressure ( in mb ) Visibility ( mi km ) Precip ( " mm )
12:53 am 00:53 Clear 88 31.1 35 1.7 15 15 N 6 9 29.81 1010 10 16.0934 0 0
1:53 am 01:53 Clear 87 30.6 31 -0.6 13 13 N 9 15 29.8 1009 10 16.0934 0 0
2:53 am 02:53 Clear 87 30.6 31 -0.6 13 13 NE 8 13 29.82 1010 10 16.0934 0 0
3:53 am 03:53 Clear 88 31.1 29 -1.7 12 12 N 5 7 29.84 1011 10 16.0934 0 0
4:53 am 04:53 Clear 83 28.3 32 0 16 16 NW 6 9 29.86 1011 10 16.0934 0 0
5:53 am 05:53 Sunny 81 27.2 34 1.1 18 18 N 5 7 29.88 1012 10 16.0934 0 0
6:53 am 06:53 Sunny 85 29.4 32 0 15 15 NW 5 7 29.89 1012 10 16.0934 0 0
7:53 am 07:53 Sunny 88 31.1 33 0.6 14 14 SE 3 6 29.92 1013 10 16.0934 0 0
8:53 am 08:53 Sunny 93 33.9 30 -1.1 10 10 E 3 6 29.93 1014 10 16.0934 0 0
9:53 am 09:53 Sunny 97 36.1 29 -1.7 9 9 E 8 13 29.92 1013 10 16.0934 0 0
10:53 am 10:53 Sunny 99 37.2 30 -1.1 9 9 SSE 8 13 29.92 1013 10 16.0934 0 0
11:53 am 11:53 Sunny 101 38.3 31 -0.6 8 8 SSE 3 6 29.91 1013 10 16.0934 0 0
12:53 pm 12:53 Sunny 104 40 33 0.6 8 8 SE 8 13 29.89 1012 10 16.0934 0 0
1:53 pm 13:53 Sunny 106 41.1 33 0.6 8 8 SE 8 13 29.86 1011 10 16.0934 0 0
2:53 pm 14:53 Sunny 108 42.2 29 -1.7 6 6 S 8 13 29.84 1010 10 16.0934 0 0
3:53 pm 15:53 Sunny 108 42.2 30 -1.1 7 7 S 7 11 29.81 1009 10 16.0934 0 0
4:53 pm 16:53 Sunny 108 42.2 32 0 7 7 SE 8 13 29.79 1009 10 16.0934 0 0
5:53 pm 17:53 Sunny 108 42.2 31 -0.6 7 7 SSW 9 15 29.78 1008 10 16.0934 0 0
6:53 pm 18:53 Sunny 107 41.7 31 -0.6 7 7 SE 8 13 29.78 1008 10 16.0934 0 0
7:53 pm 19:53 Sunny 105 40.6 31 -0.6 7 7 E 5 7 29.78 1008 10 16.0934 0 0
8:53 pm 20:53 Clear 102 38.9 33 0.6 9 9 NW 3 6 29.79 1009 10 16.0934 0 0
9:53 pm 21:53 Clear 98 36.7 36 2.2 11 11 NW 5 7 29.81 1010 10 16.0934 0 0
10:53 pm 22:53 Clear 96 35.6 35 1.7 12 12 NNW 9 15 29.82 1010 10 16.0934 0 0
11:53 pm 23:53 Clear 95 35 33 0.6 11 11 NNW 9 15 29.82 1010 10 16.0934 0 0

Powered by AerisWeather